CAPE
0 0 0 0 0 0 0 0 0 0 0 0 0 0 0 0 0 0 0 0 0 0 0 0 0 0 0 0 0 0 0 0 2 0 1 0 0 0 0 5 9 0 4
0 0 0 0 0 0 0 0 0 0 0 0 0 0 0 0 0 0 0 0 0 0 0 0 0 0 0 0 0 0 0 0 0 0 0 0 0 0 0 0 12 3 0
0 0 0 0 0 0 0 0 0 0 0 0 0 0 0 0 0 0 0 0 0 0 0 0 0 0 0 0 0 0 0 0 0 0 0 0 0 0 0 0 3 13 1
0 0 0 0 0 0 0 0 0 0 0 0 0 0 0 0 0 0 0 0 0 0 0 0 0 0 0 0 0 0 0 0 0 0 0 0 0 0 0 1 1 0 1
0 0 1 0 0 0 0 0 0 0 0 0 0 3 0 0 0 0 0 0 0 0 0 0 0 0 2 0 0 0 0 0 0 0 0 0 0 0 0 0 5 0 0
0 0 0 0 0 0 1 1 1 0 0 0 0 0 0 0 0 0 0 0 0 0 0 0 0 0 0 0 0 0 0 0 0 0 0 0 0 0 0 0 0 0 2
0 0 0 0 0 0 0 0 0 0 0 0 0 0 0 0 0 0 0 0 0 0 0 2 0 0 0 0 0 0 0 1 0 0 0 0 0 0 0 0 0 0 1
0 0 0 0 0 0 0 0 0 0 0 0 0 0 0 0 0 0 0 0 0 0 0 0 0 0 0 0 0 0 0 0 0 0 0 0 0 0 0 0 0 0 0
0 0 0 0 0 0 0 0 0 0 0 0 0 0 0 0 0 0 0 0 0 0 0 0 0 0 1 0 0 0 0 0 1 7 4 6 6 6 3 0 0 0 0
0 0 0 0 0 0 0 0 0 0 0 0 0 0 1 0 0 0 0 0 0 0 1 0 0 0 0 0 0 0 0 0 0 0 4 0 0 0 0 0 0 0 0
0 0 0 0 0 0 0 0 0 0 0 0 0 0 0 0 0 0 0 0 0 0 0 1 0 0 0 0 0 0 0 0 0 0 0 0 0 0 0 0 0 0 0
0 0 0 0 0 0 0 0 0 0 0 0 0 0 0 0 0 0 0 0 0 0 0 0 0 0 0 0 0 1 3 0 0 0 0 0 0 0 0 0 0 0 0
0 0 0 0 0 0 0 0 0 0 0 0 0 1 0 0 0 0 0 0 0 0 0 0 0 0 0 0 0 0 0 0 0 0 0 0 4 0 0 0 0 0 3
0 0 0 0 0 0 0 0 0 0 0 0 0 2 0 1 0 0 0 0 0 0 0 0 0 0 0 0 0 0 0 0 0 0 0 0 0 0 0 0 0 0 0
0 0 0 0 0 0 0 0 0 1 0 0 0 1 0 0 0 0 0 0 0 0 0 0 0 0 0 0 0 0 0 0 0 0 0 0 0 0 0 0 0 0 0
0 0 0 0 0 0 0 0 0 0 0 0 1 0 0 0 0 0 0 0 0 0 0 0 0 0 0 0 0 0 0 0 0 0 0 0 0 0 0 0 0 0 0
0 0 0 0 0 0 0 0 0 0 0 0 0 0 0 0 0 0 0 0 0 0 0 0 0 0 0 0 0 0 0 0 0 0 0 0 0 4 0 0 0 0 0
0 0 0 0 0 0 0 0 0 0 0 0 0 0 0 0 0 0 0 0 0 0 0 0 0 0 0 0 0 0 0 0 0 0 0 0 0 0 0 0 0 0 0
0 0 0 0 0 0 0 0 0 0 0 0 0 0 0 0 0 0 0 0 0 0 0 0 0 0 0 0 0 0 0 0 0 0 0 0 0 0 0 0 0 0 0
0 0 0 0 0 0 0 0 0 0 0 0 0 0 0 0 0 0 0 0 0 0 0 0 0 0 0 0 0 0 0 0 0 0 0 0 0 0 0 0 0 0 0
0 0 0 0 0 0 0 0 0 0 0 0 0 0 0 0 0 0 0 0 0 0 0 0 0 0 0 0 0 0 0 0 0 0 0 0 0 0 0 0 0 0 0
0 0 0 0 0 0 0 0 0 0 0 0 0 0 0 0 0 0 0 0 0 0 0 0 0 0 0 0 0 0 0 0 0 0 0 0 0 0 0 0 0 0 0
0 0 0 0 0 0 0 0 0 0 0 0 0 0 0 0 0 0 0 0 0 0 0 0 0 0 0 0 0 0 0 0 0 0 0 0 0 0 0 0 0 0 0
0 0 0 0 0 0 0 1 1 0 0 0 0 0 0 0 0 0 0 0 0 0 0 0 0 0 0 0 0 0 0 0 0 0 0 0 0 0 0 0 0 0 0
3 1 1 0 0 0 0 0 0 0 0 0 1 0 0 0 0 0 0 0 0 0 0 0 0 0 0 0 0 0 0 0 0 0 0 0 0 0 0 0 0 0 0
0 0 0 0 0 1 0 0 0 0 0 0 1 0 0 0 0 0 0 0 0 0 0 0 0 0 0 0 0 0 0 0 0 0 0 0 0 0 0 0 0 0 0
CIN
-0 -0 -0 -0 -0 -0 -0 -0 -0 -0 -0 -0 -0 -0 -0 -0 -0 -0 -0 -0 -0 -0 -0 -0 -0 -0 -0 -0 -0 -0 -0 -0 -1 -0 -5 -0 -0 -0 -0 -0 -0 -0 -0
-0 -0 -0 -0 -0 -0 -0 -0 -0 -0 -0 -0 -0 -0 -0 -0 -0 -0 -0 -0 -0 -0 -0 -0 -0 -0 -0 -0 -0 -0 -0 -0 -0 -0 -0 -0 -0 -0 -0 -0 -0 -0 -0
-0 -0 -0 -0 -0 -0 -0 -0 -0 -0 -0 -0 -0 -0 -0 -0 -0 -0 -0 -0 -0 -0 -0 -0 -0 -0 -0 -0 -1 -0 -0 -0 -0 -0 -0 -0 -0 -0 -0 -0 -0 -0 -0
-0 -0 -0 -0 -0 -0 -0 -0 -0 -0 -0 -0 -0 -0 -0 -0 -0 -0 -0 -0 -0 -0 -0 -0 -0 -0 -0 -0 -0 -0 -0 -0 -0 -0 -0 -0 -0 -0 -0 -0 -0 -0 -0
-0 -0 -0 -0 -0 -0 -0 -0 -0 -0 -0 -0 -0 -1 -0 -0 -0 -0 -0 -0 -0 -1 -0 -0 -0 -0 -0 -0 -0 -0 -0 -0 -0 -0 -0 -0 -0 -0 -0 -0 -0 -0 -0
-0 -0 -0 -0 -0 -0 -0 -0 -0 -0 -0 -0 -0 -0 -0 -0 -0 -0 -0 -0 -0 -0 -0 -3 -0 -0 -0 -0 -0 -0 -0 -0 -0 -0 -0 -0 -0 -0 -0 -0 -1 -1 -0
-0 -0 -0 -0 -0 -0 -0 -0 -0 -0 -0 -0 -0 -0 -0 -0 -0 -0 -0 -0 -0 -0 -0 -2 -0 -0 -0 -0 -0 -0 -0 -0 -0 -0 -0 -0 -0 -0 -0 -0 -0 -0 -0
-0 -0 -0 -0 -0 -0 -0 -0 -0 -0 -0 -0 -0 -2 -0 -0 -0 -0 -0 -0 -0 -0 -0 -0 -0 -0 -0 -0 -0 -0 -0 -0 -0 -0 -0 -0 -0 -0 -0 -0 -0 -0 -0
-0 -0 -0 -0 -0 -0 -0 -0 -0 -0 -0 -0 -0 -0 -0 -0 -0 -0 -0 -0 -0 -0 -0 -0 -0 -0 -0 -0 -0 -0 -0 -0 -1 -0 -0 -0 -0 -0 -2 -0 -0 -0 -0
-0 -0 -0 -0 -0 -0 -0 -0 -0 -0 -0 -0 -0 -0 -0 -0 -0 -0 -0 -0 -0 -0 -0 -0 -0 -0 -0 -0 -0 -0 -0 -0 -0 -0 -2 -0 -0 -0 -0 -0 -0 -0 -0
-0 -0 -0 -0 -0 -0 -0 -0 -0 -0 -0 -0 -0 -0 -0 -0 -0 -0 -0 -0 -0 -0 -0 -0 -0 -0 -0 -0 -0 -0 -0 -0 -0 -0 -0 -0 -0 -0 -0 -0 -0 -0 -0
-0 -0 -0 -0 -0 -0 -0 -0 -0 -0 -0 -0 -0 -1 -0 -0 -0 -0 -0 -0 -0 -0 -0 -0 -0 -0 -0 -0 -0 -0 -0 -0 -0 -0 -0 -0 -0 -0 -0 -0 -0 -0 -0
-0 -0 -0 -0 -0 -0 -0 -0 -0 -0 -0 -0 -1 -1 -0 -0 -0 -0 -0 -0 -0 -0 -0 -0 -0 -0 -0 -0 -0 -0 -0 -0 -0 -0 -0 -0 -3 -0 -0 -0 -0 -0 -3
-0 -0 -0 -0 -0 -0 -0 -0 -0 -0 -0 -0 -0 -1 -0 -0 -0 -0 -0 -0 -0 -0 -0 -0 -0 -0 -0 -0 -0 -0 -0 -0 -0 -0 -0 -0 -0 -0 -0 -0 -0 -0 -0
-0 -0 -0 -0 -0 -0 -0 -0 -0 -0 -0 -0 -0 -4 -0 -0 -0 -0 -0 -0 -0 -0 -0 -0 -0 -0 -0 -0 -0 -0 -0 -0 -0 -1 -0 -0 -0 -0 -0 -0 -0 -0 -0
-0 -0 -0 -0 -0 -0 -0 -0 -0 -0 -0 -0 -3 -0 -0 -0 -0 -0 -0 -0 -0 -0 -0 -0 -0 -0 -0 -0 -0 -0 -0 -0 -0 -0 -0 -0 -0 -0 -0 -0 -0 -0 -0
-0 -0 -0 -0 -0 -0 -0 -0 -0 -0 -0 -0 -0 -0 -0 -0 -0 -0 -0 -0 -0 -0 -0 -0 -0 -0 -0 -0 -0 -0 -0 -0 -0 -0 -0 -0 -0 -0 -0 -0 -0 -0 -0
-0 -0 -0 -0 -0 -0 -0 -0 -0 -0 -0 -0 -0 -0 -0 -0 -0 -0 -0 -0 -0 -0 -0 -0 -0 -0 -0 -0 -0 -0 -0 -0 -0 -0 -0 -0 -0 -0 -0 -0 -0 -0 -0
-0 -0 -0 -0 -0 -0 -0 -0 -0 -0 -0 -0 -0 -0 -0 -0 -0 -0 -0 -0 -0 -0 -0 -0 -0 -0 -0 -0 -0 -0 -0 -0 -0 -0 -0 -0 -0 -0 -0 -0 -0 -0 -0
-0 -0 -0 -0 -0 -0 -0 -0 -0 -0 -0 -0 -0 -0 -0 -0 -0 -0 -0 -0 -0 -0 -0 -0 -0 -0 -0 -0 -0 -0 -0 -0 -0 -0 -0 -0 -0 -0 -0 -0 -0 -0 -0
-0 -0 -0 -0 -0 -0 -0 -0 -0 -0 -0 -0 -0 -0 -0 -0 -0 -0 -0 -0 -0 -0 -0 -0 -0 -0 -0 -0 -0 -0 -0 -0 -0 -0 -0 -0 -0 -5 -0 -0 -0 -0 -0
-0 -0 -0 -0 -0 -0 -0 -0 -0 -0 -1 -0 -0 -0 -0 -0 -0 -1 -0 -0 -0 -0 -0 -0 -0 -0 -0 -0 -0 -0 -0 -0 -0 -0 -0 -0 -0 -0 -0 -0 -0 -0 -0
-0 -0 -0 -0 -0 -0 -0 -0 -0 -2 -0 -0 -0 -0 -0 -0 -0 -0 -0 -0 -0 -0 -0 -0 -0 -0 -0 -0 -0 -0 -0 -0 -0 -0 -0 -0 -0 -0 -0 -0 -0 -0 -0
-0 -0 -0 -0 -0 -0 -0 -4 -2 -0 -0 -0 -0 -0 -0 -0 -0 -0 -0 -0 -0 -0 -0 -0 -0 -0 -0 -0 -0 -0 -0 -0 -0 -0 -0 -0 -0 -0 -0 -0 -0 -0 -0
-0 -0 -1 -3 -0 -1 -0 -2 -0 -0 -0 -0 -0 -0 -0 -0 -0 -0 -0 -0 -0 -0 -0 -0 -0 -0 -0 -0 -0 -0 -0 -0 -0 -0 -0 -0 -0 -0 -0 -3 -0 -0 -0
-0 -0 -0 -0 -2 -2 -3 -0 -0 -0 -0 -0 -0 -0 -0 -0 -0 -0 -0 -0 -0 -0 -0 -0 -0 -0 -0 -0 -0 -0 -0 -0 -0 -0 -0 -0 -0 -0 -0 -0 -0 -0 -0
Wind_Speed
10 10 10 8 8 6 7 6 6 5 6 6 7 5 5 7 7 6 7 7 8 7 7 9 10 10 8 8 7 7 7 7 8 8 6 9 12 14 14 10 9 6 7
9 10 10 9 9 8 7 7 6 6 6 6 6 6 6 6 7 6 7 7 6 6 7 9 9 8 10 10 7 9 9 9 7 10 8 9 12 15 14 14 10 7 5
6 8 10 8 9 9 8 6 6 7 6 6 6 5 5 5 5 3 5 6 3 5 4 7 7 8 7 7 6 8 8 8 8 7 8 9 9 11 13 12 11 9 6
9 7 8 8 9 9 9 8 6 8 8 5 5 5 6 6 5 6 6 6 6 5 7 7 9 7 5 6 6 6 8 8 8 7 8 9 10 13 8 10 12 10 6
11 12 11 10 10 10 9 7 7 8 5 4 2 3 7 4 3 5 5 4 5 5 5 6 8 11 13 9 3 4 7 8 8 8 8 8 9 12 13 11 10 10 2
13 13 13 13 13 11 10 10 9 7 6 4 3 3 5 4 8 7 5 2 4 3 3 3 4 10 11 15 6 11 10 4 7 7 6 8 9 9 9 10 10 10 6
14 14 14 13 13 12 11 11 10 10 9 7 4 6 7 6 5 3 2 2 3 2 5 4 4 6 11 10 2 10 11 13 4 1 3 3 4 5 9 10 12 10 4
15 15 14 14 13 13 12 12 11 10 9 8 8 7 10 6 5 2 4 5 4 6 8 7 7 9 10 12 7 6 5 4 3 1 0 3 2 4 4 8 8 9 3
15 15 15 14 14 13 12 11 9 9 8 6 5 5 9 6 6 5 7 7 6 6 8 7 7 8 14 16 8 8 7 6 9 13 11 14 15 18 17 7 10 9 6
15 14 14 14 13 12 10 8 7 6 6 6 6 7 9 7 7 7 9 3 5 3 8 8 13 9 13 14 8 7 5 6 5 5 4 7 9 9 14 4 5 7 8
14 14 13 12 10 9 8 6 6 8 6 7 8 5 6 8 6 7 11 7 4 2 4 6 4 9 9 12 11 4 4 6 6 4 4 3 4 5 4 6 3 2 2
15 14 14 12 10 9 9 7 8 8 8 7 8 6 5 5 8 6 7 7 6 4 5 4 3 5 5 6 6 11 12 6 3 3 3 3 3 5 4 6 7 3 3
16 16 14 13 11 11 10 9 8 9 7 6 7 6 6 6 4 9 7 6 5 5 3 3 1 4 4 1 5 9 6 3 3 3 3 3 2 3 5 5 6 7 3
16 15 13 12 11 10 8 7 7 8 7 7 7 6 7 7 6 5 4 3 5 5 4 4 4 3 4 5 1 4 2 2 2 2 2 3 3 4 3 3 3 4 3
15 14 13 11 11 10 9 6 6 6 8 7 6 5 7 6 5 8 6 4 3 3 2 3 1 1 2 2 3 2 2 3 3 3 3 3 3 3 4 3 4 6 3
15 12 11 10 10 9 9 8 15 13 14 11 14 10 7 16 15 14 11 7 4 0 2 1 2 1 2 2 2 3 2 3 2 3 3 4 6 5 6 5 6 7 7
13 13 10 10 10 10 11 10 9 9 17 18 21 19 17 14 14 12 10 4 3 2 3 2 2 2 1 2 2 2 2 2 4 4 3 4 6 7 7 7 7 7 8
12 13 11 9 9 8 9 10 9 8 7 6 12 13 16 14 12 11 7 4 2 4 1 2 2 2 1 2 3 3 3 3 3 4 3 3 4 6 4 6 6 3 7
11 9 10 8 7 8 9 10 9 8 8 8 7 8 10 12 10 7 6 3 2 3 2 2 2 1 2 2 2 2 2 1 2 2 2 2 3 4 3 3 5 7 6
9 13 12 9 9 9 9 10 10 9 9 9 9 9 8 7 4 3 4 3 1 2 2 2 2 2 3 2 1 2 2 2 2 3 3 2 3 2 3 3 3 6 6
9 11 15 10 10 10 10 10 10 9 9 9 9 10 15 8 7 8 6 4 2 3 3 1 2 2 1 1 1 3 3 2 3 2 2 3 3 3 2 3 3 5 7
11 12 11 11 10 10 10 10 10 9 10 10 8 12 20 8 6 5 5 5 4 3 3 2 1 2 3 3 3 3 1 0 2 3 3 3 3 2 3 2 3 3 4
12 13 11 10 10 12 10 9 9 9 9 9 7 10 11 7 3 4 6 7 5 4 3 3 1 3 3 2 2 2 2 2 2 3 2 3 3 3 2 2 3 3 3
13 13 12 11 11 11 10 9 9 10 9 9 9 9 8 6 5 5 8 6 5 6 5 4 2 5 3 2 2 2 5 4 3 5 5 3 2 3 3 2 2 3 3
13 13 13 12 11 11 10 9 9 9 8 9 10 9 7 7 6 7 7 5 5 5 5 3 2 6 4 2 1 6 6 7 5 4 3 5 4 2 3 1 2 2 3
11 13 10 10 10 10 10 9 9 8 8 8 9 9 8 8 7 8 8 7 5 4 5 4 4 5 5 3 5 7 5 4 3 3 3 3 4 3 2 2 5 2 3
Wind_Direction
154 150 136 128 124 115 108 106 105 105 102 96 86 68 42 58 34 38 67 34 45 28 24 30 23 14 10 6 4 0 356 338 323 333 342 16 21 4 347 353 347 29 9
155 139 134 136 134 124 113 108 113 109 90 97 96 100 83 65 63 27 69 53 29 46 29 35 31 24 22 6 11 2 354 325 349 330 11 8 21 2 342 348 356 13 9
118 142 134 140 125 115 115 104 87 93 84 77 94 86 79 96 100 81 43 99 64 30 43 44 27 34 24 4 18 5 352 337 354 346 8 8 14 359 348 348 347 353 19
132 113 112 106 110 109 92 86 77 81 85 63 50 69 64 41 65 55 56 39 53 42 33 58 34 27 26 13 14 7 357 354 4 4 15 3 1 356 354 348 351 349 15
142 134 124 119 111 109 112 112 110 102 111 110 108 85 106 80 47 54 61 47 50 40 49 37 48 22 16 22 21 8 14 10 9 11 14 4 1 359 358 339 341 331 27
161 154 146 142 141 136 140 144 131 127 133 128 120 119 117 100 91 79 81 73 59 41 27 69 64 35 9 355 29 42 40 30 11 11 7 9 360 355 342 338 345 345 344
167 160 158 156 156 154 159 149 153 151 160 149 188 162 127 116 112 96 15 328 126 104 31 15 91 47 7 342 358 61 46 35 44 16 6 333 339 339 344 343 348 341 28
173 160 162 162 159 159 166 158 162 168 155 166 190 194 116 100 102 61 321 274 144 92 76 31 24 42 13 350 8 43 17 5 330 322 263 287 295 326 9 343 332 335 321
172 165 165 168 162 164 167 161 166 160 171 139 137 108 116 108 73 33 350 299 119 90 85 63 46 39 17 10 19 32 11 341 345 2 21 22 21 16 14 0 2 7 344
168 165 160 168 164 164 158 161 153 145 119 115 100 83 117 107 73 41 10 328 92 88 131 101 59 43 23 24 31 18 358 313 319 336 353 16 20 7 9 13 351 13 357
161 159 159 164 152 145 148 141 136 121 124 115 108 109 84 106 79 53 33 63 27 21 71 87 52 33 22 21 27 343 348 338 339 356 1 6 1 354 353 347 329 68 8
160 158 161 155 153 151 141 137 123 120 118 136 147 152 134 116 118 88 80 78 34 44 69 61 57 11 3 20 19 6 18 355 348 360 360 351 356 352 338 340 327 325 170
161 161 159 159 153 155 151 149 145 138 148 173 167 167 157 147 144 140 122 118 84 91 93 129 204 273 330 104 10 28 10 355 352 10 353 330 333 318 328 339 328 332 354
156 159 157 157 153 159 154 161 161 157 165 183 179 175 159 158 163 163 168 148 135 146 155 213 226 242 260 273 94 33 22 358 8 354 344 313 325 1 328 334 341 323 1
157 159 160 160 160 161 154 167 171 159 174 180 179 165 158 145 99 108 95 79 61 61 345 262 130 27 41 25 14 22 62 28 1 334 5 347 335 7 335 347 6 341 352
161 163 164 158 165 163 136 86 76 113 95 103 113 110 72 118 130 116 109 99 100 37 254 245 89 48 55 56 29 2 31 38 340 349 12 12 351 357 356 1 26 1 347
164 162 157 156 173 164 139 132 122 91 96 109 117 121 124 133 129 129 125 129 178 208 238 95 98 66 30 65 46 29 20 22 12 3 23 12 357 350 7 7 20 7 347
160 157 159 157 170 160 147 141 137 141 131 121 127 129 131 134 137 137 146 180 226 233 60 74 73 83 41 52 57 36 28 28 7 354 25 14 349 348 12 10 9 358 356
155 158 153 147 153 148 136 139 143 149 148 144 139 134 142 140 144 152 183 229 231 133 125 107 88 61 62 59 86 56 342 91 339 332 19 33 349 341 354 5 1 354 11
143 143 147 146 143 144 146 150 154 163 162 164 166 154 144 129 172 192 212 190 154 98 108 117 98 71 48 48 55 121 329 39 42 22 7 27 351 332 0 0 7 360 10
145 149 149 147 156 158 159 163 164 169 169 167 165 162 159 174 194 196 173 159 171 131 126 69 98 118 139 135 351 53 57 18 28 16 1 356 341 334 355 3 20 9 14
152 154 155 157 160 165 169 170 172 174 167 168 172 163 167 188 203 165 157 144 113 94 90 78 10 84 71 49 37 26 13 24 33 39 10 338 336 11 7 5 17 10 18
157 158 155 164 167 169 171 173 175 173 165 167 145 149 169 186 177 152 132 132 130 120 85 76 47 57 94 122 56 27 9 49 56 82 19 340 342 359 9 358 20 22 3
159 157 167 167 168 170 173 176 172 168 165 146 150 154 166 174 180 128 127 131 116 112 123 97 24 69 63 19 350 11 60 41 36 34 0 335 327 27 352 5 25 358 352
160 163 174 167 167 169 171 171 167 165 163 151 151 154 162 169 149 132 127 122 114 115 116 112 154 146 149 134 306 82 58 53 39 6 0 336 300 277 265 332 24 0 352
162 163 161 164 164 165 167 165 163 162 159 154 150 157 161 148 141 136 133 130 118 112 135 152 136 79 117 210 131 105 83 59 36 23 344 306 315 326 37 36 24 344 329